CT1AKV-10 Estrada Real PT current weather conditions

sailwx.info

Wind from 325 at 1 knots gusting 4

Air temperature 9.4° C
Dewpoint 9.3° C

Last reported at 2015-Mar-29 03:45 UTC.
Time now 2015-Mar-29 04:28 UTC

Location: N 39°11' W 008°44'.
View on Google Maps.

See reports from other nearby stations

  
Tides and Currents Weather Stations Pressure Air Temp Water Temp Dewpoint Dewpoint Depression Visibility Wind Speed Wind Dir Waves Ship Positions
date/time (UTC)wind fromknots sea level pressurealtimeterstation pressurevisibilityair tempwater tempwave heightnotes
2015-Mar-29 03:45 325 1 gusting 4 9.4
2015-Mar-29 03:30 319 8.9
2015-Mar-29 03:15 335 0 gusting 3 9.4
2015-Mar-29 03:00 311 1 gusting 5 9.4
2015-Mar-29 02:45 317 2 gusting 5 9.4
2015-Mar-29 02:30 329 1 gusting 5 9.4
2015-Mar-29 02:15 321 2 gusting 6 10.0
2015-Mar-29 02:00 318 2 gusting 5 10.0
2015-Mar-29 01:45 313 2 gusting 6 10.0
2015-Mar-29 01:30 318 2 gusting 5 10.0
2015-Mar-29 01:15 323 2 gusting 6 10.0
2015-Mar-29 01:00 314 2 gusting 6 10.6
2015-Mar-29 00:45 314 4 gusting 7 10.0
2015-Mar-29 00:30 311 3 gusting 7 10.0
2015-Mar-29 00:15 324 2 gusting 6 10.0
2015-Mar-29 00:00 320 0 gusting 3 10.0
2015-Mar-28 23:45 320 0 gusting 4 10.6
2015-Mar-28 23:30 305 2 gusting 6 10.6
2015-Mar-28 23:15 315 1 gusting 5 10.0
2015-Mar-28 23:00 329 1 gusting 6 10.6
2015-Mar-28 22:45 334 3 gusting 8 10.6
2015-Mar-28 22:30 316 3 gusting 6 10.6
2015-Mar-28 22:15 302 3 gusting 9 10.6
2015-Mar-28 22:00 328 2 gusting 6 10.6
2015-Mar-28 21:45 315 3 gusting 8 10.6
2015-Mar-28 21:30 317 3 gusting 9 10.6
2015-Mar-28 21:15 308 1 gusting 4 10.6
2015-Mar-28 21:00 339 0 gusting 4 10.6
2015-Mar-28 20:45 330 1 gusting 8 11.1
2015-Mar-28 20:30 309 3 gusting 6 11.1
2015-Mar-28 20:15 328 4 gusting 9 11.1
2015-Mar-28 20:00 305 3 gusting 9 11.7
2015-Mar-28 19:45 311 4 gusting 7 11.7
2015-Mar-28 19:30 312 6 gusting 12 12.2
2015-Mar-28 19:15 307 6 gusting 13 12.2
2015-Mar-28 19:00 319 6 gusting 13 12.8
2015-Mar-28 18:45 327 6 gusting 13 13.9
2015-Mar-28 18:30 307 6 gusting 14 15.0
2015-Mar-28 18:15 299 7 gusting 14 16.7
2015-Mar-28 18:00 303 6 gusting 14 17.2
2015-Mar-28 17:45 312 6 gusting 15 18.3
2015-Mar-28 17:15 322 6 gusting 14 20.6
2015-Mar-28 17:00 317 6 gusting 13 21.7
2015-Mar-28 16:45 311 5 gusting 10 23.3
2015-Mar-28 16:30 311 6 gusting 14 23.3
2015-Mar-28 16:15 322 7 gusting 14 22.8
2015-Mar-28 16:00 318 6 gusting 14 23.3
2015-Mar-28 15:45 314 6 gusting 14 23.3
2015-Mar-28 15:30 299 4 gusting 12 23.9
2015-Mar-28 15:15 312 5 gusting 12 23.3
2015-Mar-28 15:00 317 6 gusting 13 23.3
2015-Mar-28 14:45 315 5 gusting 13 23.3
2015-Mar-28 14:30 316 6 gusting 13 23.3
2015-Mar-28 14:15 325 6 gusting 14 23.3
2015-Mar-28 14:00 312 6 gusting 14 23.3
2015-Mar-28 13:45 323 6 gusting 13 23.9
2015-Mar-28 13:30 319 6 gusting 13 23.9
2015-Mar-28 13:15 307 6 gusting 13 24.4
2015-Mar-28 13:00 313 4 gusting 9 25.6
2015-Mar-28 12:45 341 4 gusting 9 25.0
2015-Mar-28 12:30 316 5 gusting 9 24.4
2015-Mar-28 12:15 324 5 gusting 13 23.9
2015-Mar-28 12:00 328 6 gusting 13 23.3
2015-Mar-28 11:45 315 5 gusting 13 23.3
2015-Mar-28 11:30 324 5 gusting 12 23.3
2015-Mar-28 11:15 320 4 gusting 13 23.3
2015-Mar-28 11:00 332 4 gusting 10 23.3
2015-Mar-28 10:45 314 3 gusting 10 23.3
2015-Mar-27 21:15 309 3 gusting 6 12.2
2015-Mar-27 21:00 314 2 gusting 8 12.2
2015-Mar-27 20:45 298 3 gusting 9 12.8
2015-Mar-27 20:30 317 5 gusting 13 12.8
2015-Mar-27 20:15 309 5 gusting 11 12.8
2015-Mar-27 20:00 316 5 gusting 10 13.3
2015-Mar-27 19:45 298 5 gusting 11 13.3
2015-Mar-27 19:30 325 5 gusting 12 13.9
2015-Mar-27 19:15 313 4 gusting 9 14.4
2015-Mar-27 19:00 323 5 gusting 11 15.0
2015-Mar-27 18:45 315 4 gusting 9 15.6
2015-Mar-27 18:30 310 5 gusting 13 16.7
2015-Mar-27 18:15 314 5 gusting 11 18.9
2015-Mar-27 18:00 312 4 gusting 12 20.0
2015-Mar-27 17:45 336 6 gusting 12 20.0
2015-Mar-27 17:30 300 6 gusting 14 20.6
2015-Mar-27 17:15 327 5 gusting 13 21.7
2015-Mar-27 17:00 345 6 gusting 13 21.7
2015-Mar-27 16:45 330 6 gusting 13 22.2
2015-Mar-27 16:30 299 5 gusting 13 22.8
2015-Mar-27 16:15 323 6 gusting 12 22.8
2015-Mar-27 16:00 332 6 gusting 13 22.8
2015-Mar-27 15:45 318 6 gusting 13 22.8
2015-Mar-27 15:30 321 6 gusting 18 22.8
2015-Mar-27 15:15 322 6 gusting 14 23.3
2015-Mar-27 15:00 320 6 gusting 14 23.3
2015-Mar-27 14:45 327 5 gusting 11 23.3
2015-Mar-27 14:30 324 6 gusting 14 23.3
2015-Mar-27 14:15 309 6 gusting 13 23.3
2015-Mar-27 14:00 318 6 gusting 13 23.3
2015-Mar-27 13:45 311 6 gusting 13 23.3
2015-Mar-27 13:30 338 5 gusting 12 23.3
2015-Mar-27 13:15 310 6 gusting 12 22.8
2015-Mar-27 13:00 333 6 gusting 13 22.2
2015-Mar-27 12:45 342 5 gusting 12 22.2
2015-Mar-27 12:30 326 5 gusting 14 21.7
2015-Mar-27 12:15 310 5 gusting 11 21.7
2015-Mar-27 12:00 330 5 gusting 12 21.1
2015-Mar-27 11:45 341 5 gusting 10 20.6
2015-Mar-27 11:30 343 6 gusting 14 20.0
2015-Mar-27 11:15 333 4 gusting 11 18.9
2015-Mar-27 11:00 317 5 gusting 10 18.3
2015-Mar-27 10:45 335 6 gusting 13 18.9
2015-Mar-27 10:30 346 5 gusting 10 17.8
2015-Mar-27 10:15 323 4 gusting 11 16.7
2015-Mar-27 10:00 320 4 gusting 9 16.1
2015-Mar-27 09:45 322 5 gusting 9 15.6
2015-Mar-27 09:30 351 3 gusting 11 15.0
2015-Mar-27 09:15 338 3 gusting 10 15.0
2015-Mar-27 09:00 333 4 gusting 9 15.0
2015-Mar-27 08:45 323 3 gusting 9 14.4
2015-Mar-27 08:30 357 2 gusting 8 13.9
2015-Mar-27 08:15 355 3 gusting 8 13.3
2015-Mar-27 08:00 325 4 gusting 10 13.3
2015-Mar-27 07:45 006 3 gusting 11 13.3
2015-Mar-27 07:30 338 3 gusting 9 13.3
2015-Mar-27 07:15 313 4 gusting 10 12.8
2015-Mar-27 07:00 345 2 gusting 7 12.8
2015-Mar-27 06:45 325 3 gusting 6 12.2
2015-Mar-27 06:30 331 2 gusting 6 12.2
2015-Mar-27 06:15 334 1 gusting 4 12.2
2015-Mar-27 06:00 313 1 gusting 6 12.2
2015-Mar-27 05:45 308 1 gusting 5 12.2
2015-Mar-27 05:30 317 2 gusting 6 12.2
2015-Mar-27 05:15 311 3 gusting 6 12.2
2015-Mar-27 05:00 316 1 gusting 4 12.2
2015-Mar-27 04:45 304 1 gusting 6 12.2
2015-Mar-27 04:30 316 2 gusting 6 12.2
2015-Mar-27 04:15 307 2 gusting 6 12.2
2015-Mar-27 04:00 316 2 gusting 6 12.2